Regional Weather Roundup
Issued by NWS

Home | Current Version | Previous Version | Graphics & Text | Print | Product List | Glossary On
Versions: 1 2 3 4 5 6 7 8 9 10 11 12 13 14 15 16 17 18 19 20 21 22 23 24 25 26 27 28 29 30 31 32 33 34 35 36 37 38 39 40 41 42 43 44 45 46 47 48 49 50
000
ASUS45 KBOU 222107
RWRCO

WEATHER ROUNDUP FOR COLORADO
NATIONAL WEATHER SERVICE DENVER/BOULDER CO
300 PM MDT FRI MAY 22 2015

NOTE: "FAIR" INDICATES FEW OR NO CLOUDS BELOW 12000 FEET WITH NO
SIGNIFICANT WEATHER AND/OR OBSTRUCTIONS TO VISIBILITY.

COZ001>005-013-030-031-222200-
...NORTHWEST COLORADO...

CITY           SKY/WX    TMP DP  RH WIND       PRES   REMARKS
CRAIG          PTSUNNY   61  41  47 W5        29.95F
HAYDEN         PTSUNNY   55  39  54 S5        29.97F
MEEKER         PTSUNNY   51  40  65 MISG      29.98S
MOUNT WERNER   NOT AVBL
STEAMBOAT SPGS PTSUNNY   53  38  58 W3        29.99F
WALDEN         CLOUDY    50  32  50 S13G18    30.02F
$$

COZ006>008-011-222200-
...WEST CENTRAL VALLEYS...

CITY           SKY/WX    TMP DP  RH WIND       PRES   REMARKS
GRAND JUNCTION PTSUNNY   64  37  36 N9        29.88F
MONTROSE       PTSUNNY   65  29  25 VRB5      29.91F
EAGLE          PTSUNNY   59  37  44 W10       30.00F
RIFLE          CLOUDY    57  40  52 W7        29.94S
DELTA          PTSUNNY   69  35  28 MISG      29.89F
NUCLA          PTSUNNY   68  27  21 SW15G24   29.95F
$$

COZ017>023-064>068-222200-
...SOUTHWEST COLORADO...

CITY           SKY/WX    TMP DP  RH WIND       PRES   REMARKS
DURANGO        PTSUNNY   58  39  49 N7        30.00F
CORTEZ         PTSUNNY   63  31  30 VRB7G29   29.95S
PAGOSA SPRINGS PTSUNNY   58  33  38 SE14      30.07F
TELLURIDE      CLOUDY    49  27  43 S3        30.10F
WOLF CREEK PAS NOT AVBL
$$

COZ009-010-012-014-032>034-037-058>063-222200-
...CENTRAL COLORADO...

CITY           SKY/WX    TMP DP  RH WIND       PRES   REMARKS
ASPEN          PTSUNNY   57  29  34 E5        29.98F
BUENA VISTA    PTSUNNY   56  32  40 SE21G30   30.03R
COPPER MTN     LGT SNOW  37  23  56 S14G28    30.19S
BERTHOUD PASS  HAZE      28  21  74 NW10      30.20S VSB<1/4 WCI  19
COTTONWOOD PAS PTSUNNY   54  23  30 SW6       30.10R
GUNNISON       PTSUNNY   59  23  25 SE5       30.01F
KREMMLING      PTSUNNY   52  32  46 SW8       30.02S
LEADVILLE      PTSUNNY   47  26  44 N8        30.07
MONARCH PASS   CLOUDY    34  25  69 MISG      30.29S
SALIDA         CLOUDY    58  32  37 N6        30.07F
SUNLIGHT       CLOUDY    39  36  87 NW5       30.16S THUNDER
WILKERSON PASS PTSUNNY   39  32  75 S5        30.19S
$$

COZ069>075-222200-
...SAN LUIS VALLEY/SANGRE DE CRISTO MOUNTAINS...

CITY           SKY/WX    TMP DP  RH WIND       PRES   REMARKS
ALAMOSA        MOSUNNY   64  25  22 S26G32    30.04F
LA VETA PASS   MOSUNNY  N/A N/A N/A MISG      30.15F
SAGUACHE       PTSUNNY   59  32  36 S14G24    30.04F
$$

COZ035-036-038>040-222200-
...NORTHERN COLORADO FRONT RANGE...

CITY           SKY/WX    TMP DP  RH WIND       PRES   REMARKS
DENVER INTL AP CLOUDY    56  46  69 NE8       29.99S
DMNS CITY PARK   N/A     60  47  62 N10       29.98S
AURORA         PTSUNNY   56  45  67 NE9       30.00R
FRONT RANGE AP PTSUNNY   57  48  72 NE7       30.00R
ERIE MUNI ARPT CLOUDY    54  46  74 NE7       29.98F
BOULDER MUN AP CLOUDY    52  46  82 NE7       29.98F
CENTENNIAL     PTSUNNY   58  45  62 N9        29.98F
BROOMFIELD     PTSUNNY   55  46  71 VRB9      30.00F
FORT COLLINS   CLOUDY    54  48  82 NE9       30.01F
LONGMONT       CLOUDY    56  48  73 E8        30.00F
$$

COZ041-046-047-076>085-087-088-222200-
...PIKES PEAK/PALMER DIVIDE AND SOUTHERN FOOTHILLS...

CITY           SKY/WX    TMP DP  RH WIND       PRES   REMARKS
COLO. SPRINGS  PTSUNNY   61  46  57 SE12      29.99S
A. F. ACADEMY  MOSUNNY   60  46  58 S10G16    29.98F
ELLICOTT       NOT AVBL
FALCON         PTSUNNY   61  45  55 S10       30.03S
FORT CARSON    PTSUNNY   62  46  55 VRB7G17   29.96S
LIMON          PTSUNNY   60  45  57 N5        29.98F
MONUMENT HILL  NOT AVBL
TRINIDAD       MOSUNNY   70  43  37 S9G22     29.96F
$$

COZ042>045-048>051-090-091-222200-
...NORTHEAST COLORADO...

CITY           SKY/WX    TMP DP  RH WIND       PRES   REMARKS
GREELEY ARPT   CLOUDY    54  46  76 E8        30.00F
AKRON          CLOUDY    53  50  89 E10       29.99F
BURLINGTON     PTSUNNY   59  54  83 SE24G36   29.97F
WRAY           CLOUDY   N/A N/A N/A E13G22    30.02F HAZE
STERLING       CLOUDY    54  48  82 SE13      30.00F
HOLYOKE        NOT AVBL
FORT MORGAN    CLOUDY    53  48  83 E6        30.00F
$$

COZ086-089-092>099-222200-
...SOUTHEAST COLORADO...

CITY           SKY/WX    TMP DP  RH WIND       PRES   REMARKS
PUEBLO         SUNNY     69  50  50 E14       29.91F
LA JUNTA       SUNNY     71  51  49 E8        29.92F
LAMAR          PTSUNNY   73  51  46 S14       29.90F
SPRINGFIELD      N/A     68  52  56 S25G33    29.98F
$$


USA.gov is the U.S. government's official web portal to all federal, state and local government web resources and services.